FW7499 Weather Reports


time (UTC)temp
C
wind
direction
speed
KPH
gust
KPH
rain 1hr
cm
rain 24hr
cm
rain mn
cm
humidity
%
barometer
mb
20260510151522 16 90 3.2 8.0 0.00 0.00 0.00 37 1022.8
20260510151008 16 319 0.0 4.8 0.00 0.00 0.00 39 1022.8
20260510150507 15 243 0.0 4.8 0.00 0.00 0.00 35 1022.8
20260510150023 15 145 0.0 4.8 0.00 0.00 0.00 37 1022.7
20260510145511 15 200 0.0 4.8 0.00 0.00 0.00 36 1022.7
20260510145007 15 273 0.0 8.0 0.00 0.00 0.00 43 1022.7
20260510144542 15 163 1.6 8.0 0.00 0.00 0.00 41 1022.7
20260510144009 15 98 0.0 6.4 0.00 0.00 0.00 43 1022.6
20260510143506 15 91 0.0 6.4 0.00 0.00 0.00 38 1022.5
20260510143023 15 98 0.0 4.8 0.00 0.00 0.00 41 1022.5
20260510142510 15 148 0.0 4.8 0.00 0.00 0.00 41 1022.4
20260510142007 14 172 0.0 4.8 0.00 0.00 0.00 41 1022.3
20260510141514 14 156 0.0 4.8 0.00 0.00 0.00 45 1022.3
20260510141007 14 55 0.0 3.2 0.00 0.00 0.00 45 1022.2
20260510140504 13 55 0.0 3.2 0.00 0.00 0.00 45 1022.1
20260510140015 13 42 0.0 3.2 0.00 0.00 0.00 49 1022.1
20260510135507 13 333 0.0 3.2 0.00 0.00 0.00 52 1022.1
20260510135007 13 333 0.0 3.2 0.00 0.00 0.00 52 1022.1
20260510134512 13 328 0.0 3.2 0.00 0.00 0.00 52 1022.0
20260510134009 12 328 0.0 1.6 0.00 0.00 0.00 57 1022.1
20260510133507 12 328 0.0 1.6 0.00 0.00 0.00 57 1022.1
20260510133020 11 328 0.0 0.0 0.00 0.00 0.00 56 1022.0
20260510132506 12 328 0.0 1.6 0.00 0.00 0.00 55 1022.0
20260510132009 11 328 0.0 3.2 0.00 0.00 0.00 55 1022.1
20260510131517 11 328 0.0 3.2 0.00 0.00 0.00 58 1022.2
20260510131008 10 328 0.0 1.6 0.00 0.00 0.00 59 1022.1
20260510130506 10 328 0.0 3.2 0.00 0.00 0.00 61 1022.0
20260510130014 9 328 0.0 3.2 0.00 0.00 0.00 63 1021.9
20260510125506 9 328 0.0 3.2 0.00 0.00 0.00 64 1021.7
20260510125008 8 328 0.0 1.6 0.00 0.00 0.00 66 1021.8
20260510124517 8 328 0.0 1.6 0.00 0.00 0.00 67 1021.7
20260510124012 8 328 0.0 3.2 0.00 0.00 0.00 65 1021.7
20260510123512 8 328 0.0 3.2 0.00 0.00 0.00 63 1021.6
20260510123022 8 328 0.0 0.0 0.00 0.00 0.00 66 1021.5
20260510122510 8 328 0.0 0.0 0.00 0.00 0.00 68 1021.5
20260510122010 7 328 0.0 0.0 0.00 0.00 0.00 68 1021.5
20260510121519 7 328 0.0 0.0 0.00 0.00 0.00 70 1021.4
20260510121009 7 328 0.0 0.0 0.00 0.00 0.00 71 1021.4
20260510120509 7 328 0.0 0.0 0.00 0.00 0.00 72 1021.3
20260510120025 6 328 0.0 0.0 0.00 0.00 0.00 72 1021.3
20260510115511 6 328 0.0 0.0 0.00 0.00 0.00 72 1021.2
20260510115008 6 328 0.0 0.0 0.00 0.00 0.00 73 1021.3
20260510114518 6 328 0.0 0.0 0.00 0.00 0.00 74 1021.2
20260510114007 6 328 0.0 0.0 0.00 0.00 0.00 74 1021.1
20260510113507 6 328 0.0 0.0 0.00 0.00 0.00 73 1021.1
20260510113004 6 328 0.0 0.0 0.00 0.00 0.00 74 1021.1
20260510112504 6 328 0.0 0.0 0.00 0.00 0.00 73 1021.1
20260510112004 6 328 0.0 0.0 0.00 0.00 0.00 73 1021.1
20260510111505 6 328 0.0 0.0 0.00 0.00 0.00 73 1021.2
20260510111008 6 328 0.0 0.0 0.00 0.00 0.00 72 1021.1
20260510110503 6 328 0.0 0.0 0.00 0.00 0.00 72 1021.1
20260510110012 6 328 0.0 0.0 0.00 0.00 0.00 72 1021.1
20260510105503 6 328 0.0 0.0 0.00 0.00 0.00 71 1021.0
20260510105003 6 328 0.0 0.0 0.00 0.00 0.00 70 1020.9
20260510104516 6 328 0.0 0.0 0.00 0.00 0.00 69 1020.9
20260510104003 6 328 0.0 0.0 0.00 0.00 0.00 70 1021.0
20260510103507 6 328 0.0 0.0 0.00 0.00 0.00 69 1021.0
20260510103012 6 328 0.0 0.0 0.00 0.00 0.00 70 1020.9
20260510102503 6 328 0.0 0.0 0.00 0.00 0.00 69 1020.8
20260510102007 6 328 0.0 1.6 0.00 0.00 0.00 69 1020.7
20260510101504 6 328 0.0 1.6 0.00 0.00 0.00 69 1020.5
20260510101005 6 328 0.0 1.6 0.00 0.00 0.00 68 1020.5
20260510100505 6 328 0.0 1.6 0.00 0.00 0.00 68 1020.5
20260510100005 6 328 0.0 3.2 0.00 0.00 0.00 69 1020.5
20260510095504 6 328 0.0 3.2 0.00 0.00 0.00 68 1020.4
20260510095007 6 328 0.0 1.6 0.00 0.00 0.00 68 1020.3
20260510094505 6 328 0.0 0.0 0.00 0.00 0.00 68 1020.3
20260510094007 6 328 0.0 0.0 0.00 0.00 0.00 68 1020.3
20260510093508 6 328 0.0 0.0 0.00 0.00 0.00 68 1020.2
20260510093004 6 328 0.0 0.0 0.00 0.00 0.00 69 1020.0
20260510092504 6 328 0.0 0.0 0.00 0.00 0.00 68 1020.0
20260510092004 6 328 0.0 0.0 0.00 0.00 0.00 68 1020.0
20260510091527 6 328 0.0 0.0 0.00 0.00 0.00 68 1019.8
20260510091004 6 328 0.0 0.0 0.00 0.00 0.00 69 1019.7
20260510090504 6 328 0.0 0.0 0.00 0.00 0.00 68 1019.6
20260510090006 6 328 0.0 0.0 0.00 0.00 0.00 67 1019.5
20260510085503 6 328 0.0 0.0 0.00 0.00 0.00 66 1019.5
20260510085005 6 328 0.0 0.0 0.00 0.00 0.00 64 1019.5
20260510084527 7 328 0.0 0.0 0.00 0.00 0.00 62 1019.6
20260510084003 7 328 0.0 0.0 0.00 0.00 0.00 60 1019.6
20260510083503 7 328 0.0 0.0 0.00 0.00 0.00 61 1019.5
20260510083014 7 328 0.0 0.0 0.00 0.00 0.00 63 1019.5
20260510082503 7 328 0.0 0.0 0.00 0.00 0.00 61 1019.4
20260510082006 7 328 0.0 0.0 0.00 0.00 0.00 62 1019.3
20260510081516 7 328 0.0 0.0 0.00 0.00 0.00 62 1019.4
20260510081007 7 328 0.0 0.0 0.00 0.00 0.00 62 1019.3
20260510080505 7 328 0.0 0.0 0.00 0.00 0.00 60 1019.4
20260510080013 7 328 0.0 0.0 0.00 0.00 0.00 58 1019.4
20260510075504 7 328 0.0 0.0 0.00 0.00 0.00 61 1019.5
20260510075007 7 328 0.0 0.0 0.00 0.00 0.00 63 1019.4
20260510074503 7 328 0.0 0.0 0.00 0.00 0.00 61 1019.2
20260510074004 7 328 0.0 0.0 0.00 0.00 0.00 62 1019.1
20260510073505 8 328 0.0 0.0 0.00 0.00 0.00 59 1019.1
20260510073011 8 328 0.0 1.6 0.00 0.00 0.00 58 1018.9
20260510072503 8 328 0.0 1.6 0.00 0.00 0.00 59 1019.0
20260510072003 8 328 0.0 0.0 0.00 0.00 0.00 58 1018.9
20260510071517 8 328 0.0 0.0 0.00 0.00 0.00 58 1018.9
20260510071006 8 328 0.0 0.0 0.00 0.00 0.00 58 1018.9
20260510070506 8 328 0.0 0.0 0.00 0.00 0.00 57 1018.9
20260510070018 8 328 0.0 0.0 0.00 0.00 0.00 55 1018.9
20260510065507 8 328 0.0 0.0 0.00 0.00 0.00 55 1018.9
20260510065013 8 328 0.0 0.0 0.00 0.00 0.00 58 1018.9
20260510064514 8 328 0.0 0.0 0.00 0.00 0.00 57 1018.9
20260510064003 9 328 0.0 0.0 0.00 0.00 0.00 55 1018.8
20260510063509 9 328 0.0 0.0 0.00 0.00 0.00 54 1018.7
20260510063010 10 328 0.0 0.0 0.00 0.00 0.00 53 1018.5
20260510062506 10 328 0.0 0.0 0.00 0.00 0.00 53 1018.7
20260510062003 10 328 0.0 3.2 0.00 0.00 0.00 51 1018.8
20260510061514 10 328 0.0 3.2 0.00 0.00 0.00 54 1018.8
20260510061003 10 328 0.0 1.6 0.00 0.00 0.00 53 1018.6
20260510060508 10 328 0.0 1.6 0.00 0.00 0.00 53 1018.5
20260510060018 10 328 0.0 1.6 0.00 0.00 0.00 52 1018.3
20260510055507 11 328 0.0 3.2 0.00 0.00 0.00 52 1018.1
20260510055004 11 328 0.0 3.2 0.00 0.00 0.00 50 1018.0
20260510054522 11 328 0.0 4.8 0.00 0.00 0.00 49 1017.8
20260510054008 11 328 0.0 4.8 0.00 0.00 0.00 48 1017.5
20260510053507 11 327 1.6 4.8 0.00 0.00 0.00 49 1017.3
20260510053019 11 330 0.0 3.2 0.00 0.00 0.00 49 1017.3
20260510052508 11 330 0.0 3.2 0.00 0.00 0.00 49 1017.2
20260510052007 11 330 0.0 3.2 0.00 0.00 0.00 48 1017.2
20260510051512 11 330 0.0 3.2 0.00 0.00 0.00 47 1017.0
20260510051006 12 330 1.6 3.2 0.00 0.00 0.00 47 1016.9
20260510050508 12 330 0.0 3.2 0.00 0.00 0.00 46 1017.0
20260510050016 12 330 0.0 1.6 0.00 0.00 0.00 45 1016.9
20260510045507 12 330 0.0 3.2 0.00 0.00 0.00 45 1016.8
20260510045007 12 330 0.0 4.8 0.00 0.00 0.00 45 1016.7
20260510044512 12 330 1.6 4.8 0.00 0.00 0.00 44 1016.6
20260510044007 12 330 0.0 4.8 0.00 0.00 0.00 46 1016.5
20260510043510 13 330 1.6 4.8 0.00 0.00 0.00 44 1016.5
20260510043008 13 330 1.6 4.8 0.00 0.00 0.00 44 1016.5
20260510042505 13 327 0.0 3.2 0.00 0.00 0.00 45 1016.3
20260510042002 13 327 0.0 3.2 0.00 0.00 0.00 44 1016.2
20260510041502 13 327 0.0 3.2 0.00 0.00 0.00 46 1016.2
20260510041003 13 327 0.0 6.4 0.00 0.00 0.00 44 1016.1
20260510040506 13 327 1.6 6.4 0.00 0.00 0.00 42 1016.0
20260510040012 13 323 1.6 6.4 0.00 0.00 0.00 44 1015.9
20260510035503 13 341 0.0 4.8 0.00 0.00 0.00 43 1015.9
20260510035005 13 355 0.0 6.4 0.00 0.00 0.00 44 1015.8
20260510034512 14 355 0.0 6.4 0.00 0.00 0.00 43 1015.7
20260510034010 13 352 0.0 3.2 0.00 0.00 0.00 45 1015.6
20260510033507 14 352 0.0 6.4 0.00 0.00 0.00 44 1015.6
20260510033004 15 352 0.0 6.4 0.00 0.00 0.00 42 1015.5
20260510032510 15 355 0.0 6.4 0.00 0.00 0.00 43 1015.4
20260510032007 15 343 0.0 3.2 0.00 0.00 0.00 42 1015.3
20260510031516 15 342 0.0 6.4 0.00 0.00 0.00 43 1015.3
20260510031004 15 10 0.0 6.4 0.00 0.00 0.00 42 1015.1
20260510030502 15 334 0.0 3.2 0.00 0.00 0.00 43 1015.0
20260510030011 15 333 0.0 3.2 0.00 0.00 0.00 42 1014.9
20260510025503 15 333 0.0 4.8 0.00 0.00 0.00 41 1014.9
20260510025003 15 327 1.6 4.8 0.00 0.00 0.00 41 1014.7
20260510024510 15 326 0.0 1.6 0.00 0.00 0.00 42 1014.5
20260510024003 15 326 0.0 1.6 0.00 0.00 0.00 42 1014.4
20260510023505 16 326 0.0 3.2 0.00 0.00 0.00 40 1014.3
20260510023021 16 326 0.0 3.2 0.00 0.00 0.00 41 1014.2
20260510022504 16 326 0.0 3.2 0.00 0.00 0.00 40 1014.1
20260510022008 16 326 0.0 3.2 0.00 0.00 0.00 40 1014.1
20260510021518 16 325 0.0 4.8 0.00 0.00 0.00 38 1013.9
20260510021008 16 325 0.0 4.8 0.00 0.00 0.00 40 1013.8
20260510020509 16 338 1.6 6.4 0.00 0.00 0.00 39 1013.6
20260510020014 17 338 1.6 6.4 0.00 0.00 0.00 38 1013.6
20260510015507 17 339 0.0 4.8 0.00 0.00 0.00 38 1013.4
20260510015005 17 339 1.6 4.8 0.00 0.00 0.00 38 1013.3
20260510014512 17 321 0.0 3.2 0.00 0.00 0.00 39 1013.2
20260510014006 17 329 0.0 4.8 0.00 0.00 0.00 38 1013.2
20260510013507 17 330 0.0 4.8 0.00 0.00 0.00 39 1013.0
20260510013008 17 135 0.0 9.7 0.00 0.00 0.00 39 1012.9
20260510012507 18 355 0.0 9.7 0.00 0.00 0.00 38 1012.8
20260510012009 18 350 0.0 6.4 0.00 0.00 0.00 38 1012.7
20260510011513 18 330 0.0 8.0 0.00 0.00 0.00 37 1012.6
20260510011007 18 346 3.2 8.0 0.00 0.00 0.00 37 1012.5
20260510010504 19 335 1.6 6.4 0.00 0.00 0.00 40 1012.3
20260510010027 19 105 1.6 8.0 0.00 0.00 0.00 40 1012.3
20260510005507 19 304 1.6 8.0 0.00 0.00 0.00 41 1012.2
20260510005009 19 22 1.6 8.0 0.00 0.00 0.00 44 1012.2
20260510004524 19 344 1.6 6.4 0.00 0.00 0.00 42 1012.1
20260510004007 19 345 1.6 9.7 0.00 0.00 0.00 42 1012.1
20260510003503 19 11 1.6 9.7 0.00 0.00 0.00 41 1012.1
20260510003013 19 315 0.0 4.8 0.00 0.00 0.00 42 1011.9
20260510002508 20 355 0.0 6.4 0.00 0.00 0.00 41 1012.0
20260510002009 20 317 3.2 6.4 0.00 0.00 0.00 41 1011.9
20260510001517 20 350 1.6 6.4 0.00 0.00 0.00 44 1011.9
20260510001010 20 360 0.0 6.4 0.00 0.00 0.00 44 1011.9
20260510000503 20 355 1.6 6.4 0.00 0.00 0.00 43 1012.0
20260510000016 20 302 1.6 6.4 0.00 0.00 0.00 44 1011.9
20260509235506 20 337 0.0 3.2 0.00 0.00 0.00 49 1011.9
20260509235013 20 329 0.0 4.8 0.00 0.00 0.00 47 1011.9
20260509234522 20 329 0.0 6.4 0.00 0.00 0.00 46 1011.9
20260509234010 20 341 1.6 6.4 0.00 0.00 0.00 47 1011.9
20260509233505 20 26 0.0 6.4 0.00 0.00 0.00 46 1011.9
20260509233030 20 323 0.0 6.4 0.00 0.00 0.00 46 1011.8
20260509232503 20 350 1.6 8.0 0.00 0.00 0.00 46 1011.8
20260509232008 20 309 3.2 8.0 0.00 0.00 0.00 46 1011.8
20260509231514 20 301 3.2 9.7 0.00 0.00 0.00 46 1011.8
20260509231010 20 342 0.0 9.7 0.00 0.00 0.00 46 1011.8
20260509230508 20 350 3.2 8.0 0.00 0.00 0.00 46 1011.8
20260509230020 20 351 3.2 9.7 0.00 0.00 0.00 46 1011.8
20260509225508 20 331 1.6 11.3 0.00 0.00 0.00 46 1011.7
20260509225005 20 318 1.6 11.3 0.00 0.00 0.00 46 1011.8
20260509224505 20 280 4.8 12.9 0.00 0.00 0.00 46 1011.7
20260509224002 21 338 6.4 12.9 0.00 0.00 0.00 46 1011.6
20260509223507 21 312 4.8 14.5 0.00 0.00 0.00 47 1011.7
20260509223004 21 29 1.6 14.5 0.00 0.00 0.00 45 1011.6
20260509222502 21 360 1.6 17.7 0.00 0.00 0.00 45 1011.5
20260509222003 21 235 4.8 17.7 0.00 0.00 0.00 47 1011.5
20260509221503 21 287 6.4 16.1 0.00 0.00 0.00 47 1011.4
20260509221003 21 302 4.8 16.1 0.00 0.00 0.00 46 1011.4
20260509220503 21 302 4.8 16.1 0.00 0.00 0.00 47 1011.4
20260509220016 21 302 6.4 16.1 0.00 0.00 0.00 46 1011.3
20260509215504 21 311 4.8 16.1 0.00 0.00 0.00 48 1011.2
20260509215001 21 342 3.2 12.9 0.00 0.00 0.00 46 1011.1
20260509214501 20 345 3.2 11.3 0.00 0.00 0.00 47 1011.1
20260509214002 20 36 1.6 9.7 0.00 0.00 0.00 46 1011.0
20260509213503 20 5 4.8 16.1 0.00 0.00 0.00 45 1011.1
20260509213007 20 314 8.0 16.1 0.00 0.00 0.00 45 1011.0
20260509212502 20 360 6.4 17.7 0.00 0.00 0.00 44 1011.0
20260509212003 21 314 8.0 17.7 0.00 0.00 0.00 43 1010.9
20260509211505 21 332 8.0 22.5 0.00 0.00 0.00 44 1010.8
20260509211003 21 332 3.2 22.5 0.00 0.00 0.00 43 1010.8
20260509210504 21 342 9.7 22.5 0.00 0.00 0.00 42 1010.7
20260509210017 21 360 3.2 17.7 0.00 0.00 0.00 41 1010.6
20260509205503 21 318 8.0 20.9 0.00 0.00 0.00 40 1010.6
20260509205003 22 325 9.7 22.5 0.00 0.00 0.00 39 1010.6
20260509204505 22 325 8.0 22.5 0.00 0.00 0.00 39 1010.5
20260509204002 22 301 8.0 25.7 0.00 0.00 0.00 42 1010.5
20260509203501 22 346 8.0 25.7 0.00 0.00 0.00 41 1010.2
20260509203003 22 329 9.7 25.7 0.00 0.00 0.00 41 1010.1
20260509202503 23 22 6.4 20.9 0.00 0.00 0.00 40 1009.9
20260509202006 24 347 8.0 19.3 0.00 0.00 0.00 37 1009.8
20260509201510 24 329 6.4 17.7 0.00 0.00 0.00 37 1009.7
20260509201009 25 311 8.0 17.7 0.00 0.00 0.00 34 1009.6
20260509200508 25 315 4.8 16.1 0.00 0.00 0.00 33 1009.5
20260509200013 24 291 6.4 14.5 0.00 0.00 0.00 33 1009.5
20260509195511 25 23 3.2 12.9 0.00 0.00 0.00 33 1009.4
20260509195003 25 318 4.8 14.5 0.00 0.00 0.00 30 1009.3
20260509194522 25 332 4.8 16.1 0.00 0.00 0.00 31 1009.2
20260509194004 24 313 4.8 16.1 0.00 0.00 0.00 36 1009.1
20260509193514 23 355 3.2 9.7 0.00 0.00 0.00 33 1009.1
20260509193007 23 343 1.6 9.7 0.00 0.00 0.00 31 1009.0
20260509192502 24 346 1.6 9.7 0.00 0.00 0.00 32 1009.0
20260509192002 23 338 1.6 9.7 0.00 0.00 0.00 32 1009.0
20260509191503 24 80 0.0 12.9 0.00 0.00 0.00 29 1008.9
20260509191006 25 24 6.4 14.5 0.00 0.00 0.00 30 1008.9
20260509190503 25 327 6.4 14.5 0.00 0.00 0.00 30 1009.0
20260509190012 25 344 1.6 8.0 0.00 0.00 0.00 29 1008.9
20260509185503 25 326 3.2 8.0 0.00 0.00 0.00 34 1008.8
20260509185010 25 301 1.6 9.7 0.00 0.00 0.00 32 1008.9
20260509184507 25 348 1.6 14.5 0.00 0.00 0.00 33 1008.9
20260509184009 24 344 4.8 14.5 0.00 0.00 0.00 29 1009.0
20260509183507 25 352 3.2 11.3 0.00 0.00 0.00 30 1008.9
20260509183004 25 348 3.2 8.0 0.00 0.00 0.00 31 1008.8
20260509182505 25 5 3.2 11.3 0.00 0.00 0.00 28 1008.9
20260509182006 25 302 4.8 12.9 0.00 0.00 0.00 30 1008.9
20260509181513 25 345 3.2 12.9 0.00 0.00 0.00 31 1008.8
20260509181006 25 321 4.8 12.9 0.00 0.00 0.00 34 1008.9
20260509180503 24 321 3.2 14.5 0.00 0.00 0.00 32 1008.8
20260509180008 23 309 3.2 14.5 0.00 0.00 0.00 33 1008.8
20260509175504 23 338 4.8 14.5 0.00 0.00 0.00 28 1008.8
20260509175004 23 9 3.2 12.9 0.00 0.00 0.00 35 1008.8
20260509174505 23 340 1.6 9.7 0.00 0.00 0.00 31 1008.8
20260509174003 23 338 3.2 9.7 0.00 0.00 0.00 35 1008.9
20260509173507 23 74 0.0 8.0 0.00 0.00 0.00 34 1008.9
20260509173018 23 19 0.0 4.8 0.00 0.00 0.00 31 1008.9
20260509172503 23 59 1.6 8.0 0.00 0.00 0.00 35 1009.0
20260509172006 23 314 1.6 12.9 0.00 0.00 0.00 38 1009.1
20260509171515 23 323 4.8 12.9 0.00 0.00 0.00 38 1009.1
20260509171004 23 320 3.2 12.9 0.00 0.00 0.00 31 1009.1
20260509170507 23 333 3.2 8.0 0.00 0.00 0.00 32 1009.2
20260509170020 23 338 1.6 6.4 0.00 0.00 0.00 34 1009.2
20260509165502 22 319 1.6 12.9 0.00 0.00 0.00 31 1009.1
20260509165007 22 331 3.2 12.9 0.00 0.00 0.00 37 1009.1
20260509164511 22 344 4.8 9.7 0.00 0.00 0.00 33 1009.1
20260509164004 22 296 3.2 11.3 0.00 0.00 0.00 36 1009.1
20260509163505 22 305 3.2 11.3 0.00 0.00 0.00 37 1009.0
20260509163012 22 306 4.8 11.3 0.00 0.00 0.00 36 1009.0
20260509162508 22 317 3.2 14.5 0.00 0.00 0.00 35 1008.9
20260509162007 21 342 6.4 14.5 0.00 0.00 0.00 34 1009.1
20260509161519 21 349 1.6 12.9 0.00 0.00 0.00 34 1008.9
20260509161009 21 5 4.8 16.1 0.00 0.00 0.00 35 1009.0
20260509160507 21 301 4.8 16.1 0.00 0.00 0.00 35 1008.9
20260509160023 22 341 4.8 12.9 0.00 0.00 0.00 38 1009.0
20260509155509 21 326 1.6 8.0 0.00 0.00 0.00 39 1009.0
20260509155008 21 340 3.2 12.9 0.00 0.00 0.00 38 1009.0
20260509154523 21 13 3.2 19.3 0.00 0.00 0.00 39 1009.2
20260509154008 21 341 8.0 19.3 0.00 0.00 0.00 38 1009.3
20260509153504 21 341 8.0 14.5 0.00 0.00 0.00 37 1009.3
20260509153015 21 306 6.4 14.5 0.00 0.00 0.00 38 1009.1
20260509152504 21 334 0.0 17.7 0.00 0.00 0.00 40 1009.1
20260509152009 21 333 1.6 17.7 0.00 0.00 0.00 39 1009.1